Location: Fontevrault
(47.1823°N, 0.0493°E)
Time: 02:41:55
(UTC+00:00)

Meteor 1-21 Rocket - Pass Details

Date: 24 October 2021
Orbit: 834 x 907 km, 81.2° (Epoch: 07 December)

Event Time Altitude Azimuth Distance (km) Brightness Sun altitude
Rises 19:09:59 0° 333° (NNW) 3,521 7.9 -23.4°
Reaches altitude 10° 19:13:34 10° 311° (NW) 2,585 7.5 -24.0°
Maximum altitude 19:16:38 15° 279° (W) 2,266 7.4 -24.5°
Drops below altitude 10° 19:19:42 10° 247° (WSW) 2,587 7.5 -25.0°
Sets 19:23:19 0° 225° (SW) 3,524 7.9 -25.6°
